Home   Weather   Sioux Falls   Past weeks
Flag for USA

Past Weather in Sioux Falls, South Dakota, USA — Yesterday and Last 2 Weeks

Now
78 °F

Fog.


Feels Like: 81 °F
Forecast: 95 / 74 °F
Wind: 7 mph from Southeast

Location: Foss Field

Current Time: Jul 19, 2019 at 8:10:14 am

Latest Report: Jul 19, 2019 at 7:30 am


Visibility: 3 mi

Pressure: 29.67 "Hg

Humidity: 93%

Dew Point: 76 °F

Location of Sioux FallsLocation

Past Weather in Sioux Falls — Graph

°F

Sioux Falls Temperature Yesterday

Maximum temperature yesterday: 91 °F (at 5:38 pm)
Minimum temperature yesterday: 70 °F (at 4:56 am)
Average temperature yesterday: 82 °F

High & Low Weather Summary for the Past Weeks

 TemperatureHumidityPressure
High93 °F (Jul 15, 3:56 pm)97% (Jul 9, 8:39 am)30.21 "Hg (Jul 9, 8:39 am)
Low58 °F (Jul 11, 5:56 am)50% (Jul 15, 3:56 pm)29.58 "Hg (Jul 18, 6:56 pm)
Average77 °F75%29.91 "Hg
* Reported Jul 4 6:56 am — Jul 19 6:44 am, Sioux Falls. Weather by CustomWeather, © 2019

Note: Actual official high and low records may vary slightly from our data, if they occured in-between our weather recording intervals... More about our weather records

Advertising

Sioux Falls Weather History for the Previous 24 Hours

Scroll right to see more
 ConditionsComfort  
Time TempWeatherWind HumidityBarometerVisibility
6:44 am
Fri, Jul 19
76 °FFog.3 mph97%29.68 "Hg0 mi
6:23 am76 °FFog.8 mph94%29.67 "Hg1 mi
5:58 am75 °FFog.7 mph94%29.69 "Hg4 mi
4:56 am74 °FClear.6 mph94%29.63 "Hg7 mi
3:56 am74 °FClear.5 mph94%29.64 "Hg7 mi
2:56 am74 °FFog.3 mph97%29.65 "Hg6 mi
1:56 am76 °FClear.No wind91%29.66 "Hg10 mi
12:56 am76 °FClear.6 mph94%29.65 "Hg10 mi
11:56 pm
Thu, Jul 18
77 °FClear.6 mph94%29.64 "Hg10 mi
10:56 pm79 °FPassing clouds.5 mph90%29.64 "Hg10 mi
9:56 pm80 °FPassing clouds.6 mph87%29.63 "Hg10 mi
8:56 pm82 °FScattered clouds.8 mph82%29.61 "Hg10 mi
7:56 pm89 °FScattered clouds.7 mph63%29.59 "Hg10 mi
6:56 pm90 °FBroken clouds.9 mph61%29.58 "Hg10 mi
6:28 pm91 °FBroken clouds.8 mph64%29.62 "Hg10 mi
6:13 pm90 °FThunderstorms. Broken clouds.14 mph63%29.63 "Hg10 mi
5:56 pm91 °FThunderstorms. Broken clouds.9 mph61%29.60 "Hg10 mi
5:38 pm91 °FThunderstorms. Broken clouds.13 mph60%29.63 "Hg10 mi
5:16 pm89 °FThunderstorms. Broken clouds.18 mph63%29.62 "Hg10 mi
4:56 pm89 °FThunderstorms. Partly sunny.10 mph68%29.59 "Hg10 mi
3:56 pm89 °FMostly cloudy.12 mph70%29.61 "Hg10 mi
2:56 pm88 °FPartly sunny.14 mph67%29.62 "Hg10 mi
1:56 pm88 °FPartly sunny.10 mph70%29.63 "Hg10 mi
12:56 pm87 °FScattered clouds.12 mph69%29.65 "Hg10 mi
11:56 am86 °FPassing clouds.8 mph72%29.65 "Hg10 mi
10:56 am83 °FScattered clouds.12 mph77%29.66 "Hg10 mi
9:56 am81 °FScattered clouds.9 mph79%29.70 "Hg10 mi
8:56 am76 °FBroken clouds.3 mph85%29.72 "Hg10 mi
8:06 am75 °FMostly cloudy.10 mph85%29.73 "Hg10 mi
Weather by CustomWeather, © 2019

See weather overview